FW3012 Weather Reports


time (UTC)temp
C
wind
direction
speed
KPH
gust
KPH
rain 1hr
cm
rain 24hr
cm
rain mn
cm
humidity
%
barometer
mb
20260504043041 11 293 3.2 11.3 0.00 0.00 0.00 47 998.3
20260504040041 10 270 3.2 6.4 0.00 0.00 0.00 48 998.3
20260504033102 7 248 1.6 4.8 0.00 0.00 0.00 55 998.3
20260504030041 5 248 1.6 3.2 0.00 0.00 0.00 58 998.4
20260504023041 5 248 1.6 6.4 0.00 0.00 0.00 58 998.4
20260504020041 3 0.0 4.8 0.00 0.00 0.00 60 998.2
20260504013041 5 248 1.6 4.8 0.00 0.00 0.00 57 998.2
20260504010414 4 0.0 3.2 0.00 0.00 0.00 57 998.4
20260504003041 4 0.0 4.8 0.00 0.00 0.00 59 998.5
20260504000201 5 0.0 3.2 0.00 0.00 0.00 57 998.4
20260503233041 5 0.0 4.8 0.00 0.00 0.00 55 998.4
20260503230041 6 0.0 4.8 0.00 0.00 0.00 53 998.5
20260503223041 5 0.0 3.2 0.00 0.00 0.00 52 998.4
20260503220041 5 0.0 3.2 0.00 0.00 0.00 52 998.6
20260503213041 6 0.0 3.2 0.00 0.00 0.00 50 998.8
20260503210141 7 0.0 4.8 0.00 0.00 0.00 50 998.9
20260503203042 7 338 1.6 4.8 0.00 0.00 0.00 50 999.0
20260503200043 6 0.0 1.6 0.00 0.00 0.00 53 999.1
20260503193042 6 0.0 3.2 0.00 0.00 0.00 57 999.2
20260503190413 6 0.0 0.0 0.00 0.00 0.00 57 999.3
20260503183041 6 0.0 1.6 0.00 0.00 0.00 57 999.4
20260503180040 6 0.0 1.6 0.00 0.00 0.00 52 999.4
20260503173041 8 0.0 1.6 0.00 0.00 0.00 49 999.3
20260503060202 10 338 4.8 9.7 0.00 0.00 0.00 50 1002.5
20260503053042 9 0 3.2 8.0 0.00 0.00 0.00 55 1002.5